SCP
0 0 0 0 0 0 -0 -0 0 0 0 0 0 0 0 0 0 0 0 0 0 0 0 0 0 0 0 0 0 0 0 0 0 1 0 0 0 0 0 0 0 0 0 0 0 0 0 0 1
0 0 0 0 0 0 0 0 0 0 0 0 0 0 0 0 0 0 0 0 0 0 0 0 0 0 0 0 0 0 0 0 0 0 0 0 0 0 0 0 0 0 0 0 0 0 0 0 0
0 0 0 0 0 0 0 0 0 0 0 0 0 0 0 0 0 0 0 0 0 0 0 0 0 0 0 0 0 0 0 0 0 0 0 0 0 0 0 0 0 0 0 0 0 0 0 0 0
0 0 0 0 0 0 0 0 0 0 0 0 0 0 0 0 0 0 0 0 0 0 0 0 0 0 0 0 0 0 0 0 0 0 0 0 0 0 0 0 0 0 0 0 0 0 0 0 0
0 0 0 0 0 0 0 0 0 0 0 0 0 0 0 0 0 0 0 0 0 0 0 0 0 0 0 0 0 0 0 0 0 0 0 0 0 0 0 0 0 0 0 0 0 0 0 0 0
0 0 0 0 0 0 0 0 0 0 0 0 0 0 0 0 0 0 0 0 0 0 0 0 0 0 0 0 0 0 0 0 0 0 0 0 0 0 0 0 0 0 0 0 0 0 0 0 0
0 0 0 0 0 0 0 0 0 0 0 0 0 0 0 0 0 0 0 0 0 0 0 0 0 0 0 0 0 0 0 0 0 0 0 0 0 0 0 0 0 0 0 0 0 0 0 0 0
0 0 0 0 0 0 0 0 0 0 0 0 0 0 0 0 0 0 0 0 0 0 0 0 0 0 0 0 0 0 0 0 0 0 0 0 0 0 0 0 0 0 0 0 0 0 0 0 0
0 0 0 0 0 0 0 0 0 0 0 0 0 0 0 0 0 0 0 0 0 0 0 0 0 0 0 0 0 0 0 0 0 0 0 0 0 0 0 0 0 0 0 0 0 0 0 0 0
0 0 0 0 0 0 0 0 0 0 0 0 0 0 0 0 1 1 0 0 0 0 0 0 0 0 0 0 0 0 0 0 0 0 0 0 0 0 0 0 0 0 0 0 0 0 0 0 0
0 0 0 0 0 0 0 0 0 0 0 0 0 0 0 1 1 1 0 0 0 0 0 0 0 0 0 0 0 0 0 0 0 0 0 0 0 0 0 0 0 0 0 0 0 0 0 0 0
0 0 0 0 0 0 0 0 0 0 0 0 0 0 1 1 1 0 0 0 0 0 0 0 0 0 0 0 0 0 0 0 0 0 0 0 0 0 0 0 0 0 0 0 0 0 0 0 0
0 0 0 0 0 0 0 0 0 0 0 0 0 1 1 1 1 0 0 0 0 0 0 0 0 0 0 0 0 0 0 0 0 0 0 0 0 0 0 0 0 0 0 0 0 0 0 0 0
0 0 0 0 0 0 0 0 0 0 0 0 0 1 1 1 1 0 0 0 0 0 0 0 0 0 0 0 0 0 0 0 0 0 0 0 0 0 0 0 0 0 0 0 0 0 0 0 0
0 0 0 0 0 0 0 0 0 0 0 0 0 1 1 1 1 1 0 0 0 0 0 0 0 0 0 0 0 0 0 0 0 0 0 0 0 0 0 0 0 0 0 0 0 0 0 0 0
0 0 0 0 0 0 0 0 0 0 0 0 0 0 1 1 0 0 1 0 0 0 0 1 1 1 0 0 0 0 0 0 0 0 0 0 0 0 0 0 0 0 0 0 0 0 0 0 0
0 0 0 0 0 0 0 0 0 0 0 0 0 0 0 0 0 0 0 0 0 0 0 1 1 1 1 1 0 0 0 0 0 0 0 0 0 0 0 0 0 0 0 0 0 0 0 0 0
0 0 0 0 0 0 0 0 0 0 0 0 0 0 0 0 0 0 0 0 0 1 1 1 1 1 1 1 0 0 0 0 0 0 0 0 0 0 0 0 0 0 0 0 0 0 0 0 0
0 0 0 0 0 0 0 0 0 0 0 0 0 0 0 0 0 0 0 1 1 1 1 1 2 2 1 1 1 0 0 0 0 0 0 0 0 0 0 0 0 0 0 0 0 0 0 0 0
0 0 0 0 0 0 0 0 0 0 0 0 0 0 0 0 0 0 1 1 1 1 1 2 2 2 2 1 1 1 0 0 0 0 0 0 0 0 0 0 0 0 0 0 0 0 0 0 0
0 0 0 0 0 0 0 0 0 0 0 0 0 0 0 0 0 1 1 1 1 2 2 2 3 2 2 1 1 1 0 0 0 0 0 0 0 0 0 0 0 0 0 0 0 0 0 0 0
0 0 0 0 0 0 0 0 0 0 0 0 0 0 0 0 1 1 2 2 2 3 3 3 3 2 2 1 1 1 0 0 0 0 0 0 0 0 0 0 0 0 0 0 0 0 0 0 0
0 0 0 0 0 0 0 0 0 0 0 0 0 0 0 1 1 2 2 2 3 4 5 5 4 3 2 1 1 1 1 0 0 0 0 0 0 0 0 0 0 0 0 0 0 0 0 0 0
0 0 0 0 0 0 0 0 0 0 0 0 0 0 1 1 1 2 2 3 3 4 5 5 4 3 2 1 1 1 0 0 0 0 0 0 0 0 0 0 0 0 0 0 0 0 0 0 0
0 0 0 0 0 0 0 0 0 0 0 0 0 0 0 1 1 1 2 2 3 3 3 3 3 2 2 1 1 0 0 0 0 0 0 0 0 0 0 0 0 0 0 0 0 0 0 0 0
0 0 0 0 0 0 0 0 0 0 0 0 0 0 0 0 1 1 1 1 1 2 2 2 2 2 1 1 1 0 0 0 0 0 0 0 0 0 0 0 0 0 0 0 0 0 0 0 0
0 0 0 0 0 0 0 0 0 0 0 0 0 0 0 0 0 0 0 1 1 1 1 1 1 1 1 1 1 0 0 0 0 0 0 0 0 0 0 0 0 0 0 0 0 0 0 0 0
0 0 0 0 0 0 0 0 0 0 0 0 0 0 0 0 0 0 0 0 1 1 1 1 1 1 1 1 0 0 0 0 0 0 0 0 0 0 0 0 0 0 0 0 0 0 0 0 0
0 0 0 0 0 0 0 0 0 0 0 0 0 0 0 0 0 0 0 0 1 1 1 1 0 0 0 0 0 0 0 0 0 0 0 0 0 0 0 0 0 0 0 0 0 0 0 0 0
0 0 0 0 0 0 0 0 0 0 0 0 0 0 0 0 0 0 0 0 0 0 0 0 0 0 0 0 0 0 0 0 0 0 0 0 0 0 0 0 0 0 0 0 0 0 0 0 0
Wind_Speed
4 2 3 3 6 6 2 2 2 1 2 1 3 6 6 4 2 1 2 9 10 11 8 11 14 13 12 11 11 11 11 11 11 12 12 12 11 10 10 10 9 9 8 8 7 7 7 7 7
1 1 3 5 6 3 3 2 2 2 4 4 4 4 4 3 2 5 5 7 12 12 8 9 14 13 12 12 12 12 11 12 12 12 12 11 11 10 9 9 9 9 9 8 8 7 7 8 7
1 2 3 5 4 3 2 3 3 1 4 2 3 3 3 3 5 6 6 10 11 10 8 9 15 14 13 12 12 12 12 12 12 12 12 11 10 10 9 9 9 9 9 8 8 8 8 8 8
3 4 5 5 3 2 3 2 2 2 1 3 4 3 2 2 7 5 10 12 11 9 7 9 15 14 13 12 12 12 12 12 12 12 12 11 10 9 8 8 9 9 9 8 9 9 9 9 9
4 5 5 4 2 4 4 4 3 4 2 2 3 4 2 2 5 9 13 12 11 9 7 7 15 14 13 12 12 12 13 13 13 12 12 11 10 10 9 8 9 9 8 8 8 9 9 10 9
5 5 5 2 4 5 4 3 2 4 3 3 4 4 2 2 6 9 11 10 9 9 8 6 14 14 13 13 13 13 13 13 13 12 12 11 10 10 9 8 8 7 7 6 7 8 9 9 8
5 4 3 1 3 5 4 3 2 4 4 5 6 5 2 2 4 8 8 8 7 7 7 5 6 9 13 13 13 13 13 13 13 12 12 11 10 10 9 8 7 6 5 5 5 7 8 8 8
5 5 3 1 2 4 4 4 1 5 3 3 5 7 5 5 6 7 6 5 6 6 6 6 5 5 6 7 13 14 13 13 13 12 12 11 10 9 9 7 6 6 5 5 5 6 8 9 8
4 5 1 1 2 4 3 3 1 3 5 3 3 5 5 11 10 8 4 3 4 6 5 5 5 5 5 5 9 11 12 12 11 10 12 9 4 4 5 6 6 6 5 4 4 5 7 8 9
4 3 5 4 5 3 3 2 1 3 3 2 1 3 8 12 12 10 7 6 7 7 7 6 6 6 5 5 4 4 4 5 5 4 5 4 3 3 4 5 7 6 4 3 3 3 6 6 4
2 4 3 3 4 3 2 3 1 5 4 6 7 9 12 12 12 12 11 8 8 8 8 8 7 6 6 4 4 3 3 4 4 5 5 4 3 2 2 1 1 1 3 3 4 4 3 2 2
1 3 2 3 2 2 2 3 3 3 4 5 8 14 15 15 15 15 14 11 7 7 9 9 9 7 6 5 4 4 4 4 4 4 6 4 3 2 2 2 1 2 2 2 2 2 1 2 3
2 2 1 3 4 3 3 3 2 2 6 0 10 12 15 16 15 14 12 9 7 8 9 8 9 7 6 5 4 4 4 5 5 5 5 5 4 4 3 2 2 2 2 2 1 1 2 3 3
2 2 2 4 5 5 4 4 1 2 6 2 11 13 14 15 15 12 11 10 10 10 10 9 9 8 7 6 5 5 4 4 4 4 5 6 4 4 4 3 3 2 2 2 2 2 3 2 3
2 2 2 3 4 4 4 5 1 4 6 1 6 10 11 11 11 12 14 13 13 11 11 10 10 9 8 7 7 5 5 5 5 4 5 6 5 5 4 4 3 3 3 3 2 3 2 2 2
3 2 2 3 3 4 2 5 2 2 4 3 4 4 7 9 11 11 11 12 10 9 10 12 11 10 9 7 6 4 5 5 5 4 5 6 6 6 5 4 4 3 3 3 2 3 2 2 2
4 2 2 5 1 3 2 5 5 3 3 4 5 5 6 7 10 11 12 12 11 11 11 12 11 12 11 8 6 4 4 5 4 4 5 6 6 6 5 4 4 4 3 3 3 2 3 3 2
2 1 2 4 3 3 3 6 9 5 4 6 7 7 7 8 11 11 13 13 11 10 10 11 11 11 9 6 4 3 3 3 3 4 5 6 6 6 5 4 4 5 4 3 3 3 2 2 2
2 2 4 5 2 2 4 7 10 9 8 9 9 8 8 9 9 9 12 14 11 10 10 12 11 10 9 6 5 4 3 3 3 3 4 5 6 6 5 4 4 5 5 5 6 4 3 2 2
1 2 4 4 2 1 4 7 6 7 8 10 11 10 9 9 10 8 8 12 15 15 13 12 12 10 10 6 4 2 3 2 2 2 3 5 5 5 5 5 5 5 4 5 5 4 3 2 3
2 3 4 4 3 3 3 6 5 7 6 13 15 13 11 11 11 10 8 9 12 13 13 10 10 8 6 5 4 3 3 2 2 2 2 3 5 5 5 6 5 5 6 6 6 6 6 4 3
4 5 3 1 1 3 2 5 5 8 10 17 19 17 16 15 12 9 6 4 5 6 8 10 10 10 7 5 3 2 3 3 4 3 2 3 5 5 5 6 6 5 5 5 6 6 4 5 4
2 3 3 2 1 2 1 2 6 7 11 16 18 18 18 16 13 9 6 5 6 8 10 11 12 13 10 5 2 2 2 2 1 2 3 3 3 4 5 5 5 5 5 6 6 7 6 5 5
3 3 3 4 3 2 3 3 3 6 10 15 17 18 18 17 13 10 9 9 10 10 10 10 12 12 8 3 2 4 4 4 3 3 3 3 2 3 4 5 4 4 3 4 5 6 7 6 5
7 5 4 4 1 6 2 4 2 6 9 11 15 17 17 14 12 11 10 8 8 8 9 10 13 10 5 1 3 5 6 5 5 4 3 3 2 2 3 3 3 3 3 3 3 4 5 6 6
5 1 2 4 4 4 1 3 4 6 8 10 11 13 15 14 11 8 8 7 6 7 9 10 11 7 3 1 3 3 4 3 2 2 2 3 2 2 3 4 4 3 4 3 3 3 4 4 6
6 4 2 2 3 3 2 3 2 12 15 16 16 16 16 15 12 8 7 8 8 8 9 8 6 3 1 3 4 3 3 3 2 2 2 2 2 2 3 4 3 3 3 3 3 3 3 3 4
3 2 4 1 2 4 1 3 7 15 18 18 18 17 16 14 12 9 7 7 7 7 7 5 2 2 3 3 3 2 2 2 3 3 3 3 3 3 4 4 3 3 2 3 3 2 3 3 3
7 5 4 2 2 2 1 3 5 9 12 15 16 15 14 12 10 7 5 4 5 5 4 2 2 3 3 3 2 1 1 3 3 3 3 3 3 4 4 4 4 4 4 3 3 2 2 2 3
2 3 2 2 2 1 0 2 4 8 10 12 14 14 13 11 7 4 3 3 3 2 1 2 2 2 2 2 2 2 2 2 3 2 2 3 4 4 5 4 4 4 4 4 4 3 3 3 3
Wind_Direction
334 55 103 68 53 49 28 315 282 310 65 47 87 102 108 109 153 188 112 136 135 148 165 162 158 155 154 152 147 142 139 137 135 132 127 124 122 121 120 119 117 114 107 103 103 102 99 94 91
328 147 79 65 78 58 319 309 296 257 146 146 84 80 89 96 116 125 134 147 146 153 161 161 162 160 158 157 153 148 145 143 140 139 136 133 132 130 126 122 117 111 105 101 97 95 94 90 88
85 62 90 74 85 144 292 328 306 20 139 136 79 54 83 136 150 157 155 144 147 155 157 168 166 165 163 160 155 152 150 146 145 144 140 139 137 134 131 129 123 113 105 97 90 86 85 79 73
84 49 54 70 76 222 238 276 299 137 153 73 101 81 55 140 160 154 140 145 151 157 158 174 171 172 169 164 158 155 151 149 148 146 142 140 138 135 133 133 128 120 112 100 88 80 74 64 59
64 73 60 53 344 278 251 253 209 186 169 99 111 118 81 74 122 129 142 151 158 159 163 180 179 178 173 168 164 161 156 152 151 150 147 145 142 138 135 133 131 126 118 105 90 80 72 61 53
56 64 79 50 321 304 284 265 200 162 147 133 126 121 87 124 129 142 149 155 162 163 164 181 187 182 177 172 169 168 163 160 156 155 152 150 148 144 143 139 136 131 122 107 90 78 73 63 51
94 85 105 101 327 323 312 333 167 158 157 172 146 117 104 169 157 143 144 144 149 157 158 175 182 182 180 175 172 172 169 166 162 159 158 155 154 153 151 150 146 142 136 121 97 81 72 63 53
115 98 76 32 342 297 297 317 201 162 162 131 131 146 184 190 146 127 123 133 145 155 159 162 164 169 171 171 176 175 171 169 166 162 162 160 162 161 160 157 156 155 152 136 109 91 78 62 57
84 75 97 233 220 272 302 326 351 129 118 127 170 176 181 141 134 126 120 128 148 160 156 154 156 162 161 165 180 175 170 171 167 164 163 159 149 148 153 160 167 163 154 133 111 94 82 70 64
81 128 217 213 198 231 292 287 292 115 118 124 92 102 128 138 149 157 172 182 178 178 175 165 163 164 163 171 162 150 152 158 150 146 146 134 129 140 146 181 179 172 155 117 94 73 69 73 66
140 190 233 245 217 221 265 285 308 146 190 201 190 166 148 155 165 178 191 194 192 184 183 180 175 171 169 164 150 147 144 143 142 144 140 134 127 133 136 145 191 116 97 56 35 34 41 66 79
196 255 247 298 306 216 249 302 341 187 243 246 187 164 161 170 180 189 197 199 185 177 189 185 182 175 174 161 158 156 154 153 151 150 147 142 140 150 157 162 149 95 85 90 54 26 26 132 119
241 283 312 316 327 304 307 291 293 301 316 218 147 164 174 182 191 198 203 199 184 188 192 187 181 175 169 161 162 164 163 162 159 157 161 159 158 169 173 174 164 141 126 136 114 79 112 128 128
267 293 345 1 1 4 344 301 278 300 334 129 160 180 188 192 194 197 203 202 197 197 194 184 181 176 169 171 172 173 164 158 160 170 175 171 168 170 173 180 178 163 153 161 140 116 115 121 128
316 330 8 17 358 349 333 311 317 338 340 223 193 196 197 203 201 204 207 209 205 199 192 184 184 175 175 179 181 176 170 163 171 181 183 182 179 175 174 180 188 175 154 156 137 114 100 111 117
33 33 326 319 7 345 17 286 306 350 14 332 285 248 224 217 214 215 214 216 211 198 191 189 187 178 181 182 182 174 173 173 178 178 183 194 192 179 174 184 197 168 148 152 161 145 134 141 144
34 25 309 312 12 6 27 279 289 327 345 310 301 292 268 245 232 222 215 218 215 205 194 189 185 179 182 181 178 175 173 183 181 176 184 196 198 186 182 193 193 161 153 163 179 162 151 161 163
251 250 278 288 322 6 324 286 300 328 326 306 301 298 293 270 248 232 218 215 216 208 195 190 185 177 172 164 155 157 174 192 184 185 192 190 192 186 182 189 186 166 161 171 177 163 145 143 148
175 205 260 268 330 350 303 297 303 332 348 330 317 304 296 289 282 258 226 213 207 203 192 189 184 174 165 159 163 169 189 189 194 198 191 188 185 179 174 175 174 172 179 181 168 148 152 140 132
121 267 273 287 358 338 312 298 324 354 6 348 335 321 307 303 301 290 250 219 206 202 195 187 185 175 173 172 155 147 143 157 170 170 183 187 183 178 176 173 174 175 170 164 162 151 150 158 157
279 242 262 277 347 34 345 316 354 345 4 4 1 348 334 317 307 299 278 236 214 201 189 178 169 155 149 128 108 83 78 79 118 177 185 183 177 175 171 174 172 176 171 176 176 170 163 169 181
299 315 276 268 3 307 15 298 325 337 347 2 358 352 345 335 323 308 294 257 213 184 150 136 130 114 98 97 122 163 182 191 204 195 183 166 172 174 175 173 176 176 174 178 184 180 172 162 173
330 359 38 45 128 321 318 234 312 343 356 353 351 351 348 344 345 352 18 59 78 92 102 109 109 101 93 93 135 211 222 200 177 175 178 169 165 170 169 169 174 178 182 184 180 181 187 185 181
355 10 36 47 78 279 238 175 336 0 346 342 347 350 351 353 3 19 38 54 64 74 86 95 95 89 90 98 175 209 205 190 180 193 186 168 148 158 172 173 179 183 186 191 191 192 195 200 197
27 37 359 336 344 244 217 137 84 4 353 347 343 345 349 357 10 24 35 46 58 70 81 84 85 81 78 108 222 215 205 191 190 192 187 162 156 169 178 166 173 180 196 201 194 196 204 201 204
348 53 201 250 244 279 312 146 125 23 353 347 345 343 346 354 3 21 39 45 55 67 81 83 85 84 72 276 254 223 196 178 181 185 177 178 178 172 164 171 176 183 189 196 195 204 211 205 211
3 352 295 249 272 265 260 91 49 1 357 352 349 348 345 346 349 2 29 49 54 63 71 74 79 89 181 226 229 207 192 172 167 173 183 185 181 173 165 165 164 171 182 194 193 213 220 210 214
43 320 12 1 256 246 242 70 3 350 346 341 342 340 336 338 341 352 12 36 52 59 67 63 55 262 238 223 208 198 199 178 169 172 188 195 190 174 160 156 154 160 177 193 199 220 224 214 215
354 3 353 295 252 261 177 82 23 341 335 333 332 332 331 328 324 339 356 13 47 53 48 27 277 247 223 202 179 147 143 161 171 178 184 184 181 179 181 178 171 175 183 188 194 221 220 218 222
349 322 302 304 322 312 116 91 0 346 339 338 335 337 338 331 326 339 337 340 24 25 338 292 276 253 211 176 142 130 136 154 164 175 187 188 189 189 191 186 187 189 186 186 192 211 210 212 225